NKS56 KORD-KBOS

Flight info

Callsign NKS56
Flight time N/A
Altitude 37000
Route EBAKE WISMO POSTS PADDE SVM DKK PONCT JFUND2
Aircraft A320/M-SDE3FGHIRWY/LB1

Departure

Time 2026-05-05 22:40
Airport Chicago O'Hare International Airport (KORD)

Arrival

Time N/A
Airport Boston Logan International Airport (KBOS)
Time Latitude Longitude Altitude Speed Heading
2026-05-05 22:12 41.97620 -87.89658 671 ft 0 kts 22°
2026-05-05 22:31 41.97621 -87.89657 671 ft 0 kts 22°
2026-05-05 22:31 41.97622 -87.89657 671 ft 1 kts 22°
2026-05-05 22:31 41.97625 -87.89655 668 ft 0 kts 22°
2026-05-05 22:32 41.97603 -87.89668 672 ft 0 kts 22°
2026-05-05 22:32 41.97585 -87.89692 672 ft 0 kts 64°
2026-05-05 22:32 41.97583 -87.89692 671 ft 0 kts 112°
2026-05-05 22:36 41.97574 -87.89661 668 ft 13 kts 112°
2026-05-05 22:36 41.97559 -87.89614 671 ft 2 kts 112°
2026-05-05 22:36 41.97521 -87.89533 671 ft 20 kts 136°
2026-05-05 22:36 41.97421 -87.89532 671 ft 22 kts 191°
2026-05-05 22:37 41.97270 -87.89720 671 ft 38 kts 242°
2026-05-05 22:37 41.97204 -87.90066 670 ft 27 kts 270°
2026-05-05 22:37 41.97164 -87.90137 670 ft 12 kts 156°
2026-05-05 22:37 41.97067 -87.90135 670 ft 12 kts 175°
2026-05-05 22:38 41.97038 -87.90061 670 ft 20 kts 91°
2026-05-05 22:38 41.97045 -87.89792 671 ft 38 kts 89°
2026-05-05 22:38 41.97043 -87.89602 671 ft 0 kts 94°
2026-05-05 22:38 41.97043 -87.89599 671 ft 1 kts 98°
2026-05-05 22:39 41.97022 -87.89573 671 ft 8 kts 153°
2026-05-05 22:39 41.96936 -87.89573 671 ft 17 kts 207°
2026-05-05 22:39 41.96909 -87.89750 671 ft 24 kts 268°
2026-05-05 22:39 41.96906 -87.90065 670 ft 59 kts 269°
2026-05-05 22:40 41.96910 -87.90857 669 ft 114 kts 270°
2026-05-05 22:40 41.96919 -87.92123 676 ft 155 kts 274°
2026-05-05 22:40 41.96959 -87.93635 1058 ft 168 kts 272°
2026-05-05 22:40 41.96965 -87.95289 1486 ft 187 kts 268°
2026-05-05 22:41 41.96498 -87.97000 1900 ft 211 kts 234°
2026-05-05 22:41 41.95226 -87.98191 2288 ft 242 kts 201°
2026-05-05 22:41 41.93515 -87.98304 2974 ft 260 kts 169°
2026-05-05 22:41 41.91780 -87.97235 3373 ft 293 kts 142°
2026-05-05 22:42 41.90429 -87.95046 3770 ft 320 kts 117°
2026-05-05 22:42 41.89804 -87.92133 4160 ft 342 kts 93°
2026-05-05 22:42 41.90062 -87.88899 4555 ft 360 kts 71°
2026-05-05 22:42 41.91230 -87.85877 4956 ft 373 kts 50°
2026-05-05 22:43 41.93141 -87.83460 5529 ft 380 kts 36°
2026-05-05 22:43 41.95215 -87.81254 6427 ft 378 kts 36°
2026-05-05 22:43 41.97214 -87.79098 7880 ft 359 kts 36°
2026-05-05 22:43 41.99101 -87.77041 9419 ft 339 kts 36°
2026-05-05 22:44 42.00877 -87.75058 10717 ft 328 kts 36°
2026-05-05 22:44 42.02628 -87.73086 11613 ft 329 kts 36°
2026-05-05 22:44 42.04390 -87.71097 12412 ft 333 kts 36°
2026-05-05 22:44 42.06171 -87.69064 13191 ft 339 kts 39°
2026-05-05 22:45 42.07679 -87.66514 13621 ft 362 kts 60°
2026-05-05 22:45 42.08797 -87.63363 13885 ft 381 kts 64°
2026-05-05 22:45 42.09902 -87.60079 14431 ft 389 kts 65°
2026-05-05 22:45 42.11015 -87.56724 15041 ft 395 kts 64°
2026-05-05 22:46 42.12141 -87.53330 15648 ft 400 kts 64°
2026-05-05 22:46 42.13292 -87.49890 16248 ft 405 kts 64°
2026-05-05 22:46 42.14464 -87.46417 16852 ft 410 kts 63°
2026-05-05 22:46 42.15655 -87.42904 17455 ft 415 kts 63°
2026-05-05 22:47 42.16846 -87.39393 18092 ft 420 kts 63°
2026-05-05 22:47 42.18067 -87.35783 18614 ft 426 kts 63°
2026-05-05 22:47 42.19300 -87.32124 19116 ft 431 kts 63°
2026-05-05 22:47 42.20545 -87.28420 19630 ft 436 kts 64°
2026-05-05 22:48 42.21807 -87.24668 20166 ft 441 kts 64°
2026-05-05 22:48 42.23081 -87.20878 20690 ft 445 kts 64°
2026-05-05 22:48 42.24364 -87.17054 21197 ft 450 kts 64°
2026-05-05 22:48 42.25659 -87.13181 21695 ft 454 kts 64°
2026-05-05 22:49 42.26912 -87.09243 22176 ft 459 kts 70°
2026-05-05 22:49 42.27781 -87.05085 22662 ft 462 kts 81°
2026-05-05 22:49 42.28177 -87.00782 23154 ft 463 kts 90°
2026-05-05 22:49 42.28344 -86.96416 23622 ft 467 kts 90°
2026-05-05 22:50 42.28518 -86.92015 24027 ft 471 kts 90°
2026-05-05 22:50 42.28695 -86.87579 24430 ft 475 kts 90°
2026-05-05 22:50 42.28873 -86.83109 24841 ft 479 kts 90°
2026-05-05 22:50 42.29053 -86.78607 25253 ft 482 kts 89°
2026-05-05 22:51 42.29235 -86.74066 25664 ft 485 kts 89°
2026-05-05 22:51 42.29415 -86.69499 26075 ft 489 kts 89°
2026-05-05 22:51 42.29594 -86.64899 26481 ft 492 kts 90°
2026-05-05 22:51 42.29771 -86.60277 26882 ft 495 kts 90°
2026-05-05 22:52 42.29946 -86.55618 27275 ft 498 kts 90°
2026-05-05 22:52 42.30119 -86.50926 27665 ft 502 kts 90°
2026-05-05 22:52 42.30290 -86.46201 28053 ft 505 kts 90°
2026-05-05 22:52 42.30461 -86.41451 28439 ft 508 kts 90°
2026-05-05 22:53 42.30632 -86.36672 28822 ft 511 kts 90°
2026-05-05 22:53 42.30802 -86.31857 29208 ft 514 kts 90°
2026-05-05 22:53 42.30972 -86.27019 29598 ft 518 kts 90°
2026-05-05 22:53 42.31143 -86.22140 29979 ft 521 kts 90°
2026-05-05 22:54 42.31311 -86.17238 30297 ft 525 kts 89°
2026-05-05 22:54 42.31475 -86.12287 30600 ft 529 kts 89°
2026-05-05 22:54 42.31610 -86.07302 30895 ft 533 kts 90°
2026-05-05 22:54 42.31648 -86.02355 31175 ft 536 kts 92°
2026-05-05 22:55 42.31596 -85.97305 31456 ft 540 kts 93°
2026-05-05 22:55 42.31487 -85.92229 31794 ft 542 kts 94°
2026-05-05 22:55 42.31360 -85.87137 32195 ft 543 kts 93°
2026-05-05 22:55 42.31245 -85.82021 32571 ft 545 kts 93°
2026-05-05 22:56 42.31151 -85.76892 32948 ft 547 kts 92°
2026-05-05 22:56 42.31079 -85.71747 33327 ft 549 kts 91°
2026-05-05 22:56 42.31021 -85.66569 33713 ft 551 kts 91°
2026-05-05 22:56 42.30966 -85.61386 34054 ft 553 kts 91°
2026-05-05 22:57 42.30906 -85.56189 34383 ft 554 kts 91°
2026-05-05 22:57 42.30838 -85.50976 34722 ft 555 kts 91°
2026-05-05 22:57 42.30764 -85.45770 35066 ft 555 kts 91°
2026-05-05 22:57 42.30677 -85.40557 35399 ft 555 kts 91°
2026-05-05 22:58 42.30583 -85.35355 35788 ft 554 kts 91°
2026-05-05 22:58 42.30486 -85.30151 36140 ft 554 kts 90°
2026-05-05 22:58 42.30388 -85.24951 36472 ft 554 kts 90°
2026-05-05 22:58 42.30294 -85.19744 36774 ft 555 kts 90°
2026-05-05 22:59 42.30203 -85.14512 36878 ft 560 kts 90°
2026-05-05 22:59 42.30016 -85.03850 36895 ft 576 kts 90°
2026-05-05 23:00 42.29656 -84.87413 37410 ft 586 kts 91°
2026-05-05 23:00 42.29526 -84.81942 38135 ft 577 kts 90°
2026-05-05 23:00 42.29403 -84.76635 39046 ft 552 kts 90°
2026-05-05 23:01 42.29274 -84.71526 39577 ft 538 kts 90°
2026-05-05 23:01 42.29133 -84.66461 39006 ft 545 kts 91°
2026-05-05 23:01 42.28982 -84.61281 37965 ft 558 kts 91°
2026-05-05 23:01 42.28826 -84.56025 37218 ft 561 kts 91°
2026-05-05 23:02 42.28690 -84.50771 36927 ft 561 kts 89°
2026-05-05 23:02 42.28923 -84.45518 36829 ft 559 kts 79°
2026-05-05 23:02 42.30351 -84.35172 36866 ft 561 kts 75°
2026-05-05 23:03 42.31823 -84.24827 36865 ft 559 kts 76°
2026-05-05 23:03 42.33259 -84.14567 36856 ft 546 kts 76°
2026-05-05 23:04 42.34643 -84.04594 36855 ft 537 kts 76°
2026-05-05 23:04 42.36022 -83.94687 36854 ft 536 kts 76°
2026-05-05 23:05 42.37397 -83.84802 36852 ft 534 kts 76°
2026-05-05 23:05 42.38756 -83.74948 36849 ft 532 kts 76°
2026-05-05 23:06 42.40102 -83.65092 36851 ft 533 kts 76°
2026-05-05 23:06 42.41043 -83.55138 36854 ft 536 kts 85°
2026-05-05 23:07 42.41393 -83.45061 36857 ft 535 kts 85°
2026-05-05 23:07 42.41752 -83.35075 36859 ft 535 kts 85°
2026-05-05 23:08 42.42115 -83.25023 36843 ft 533 kts 86°
2026-05-05 23:08 42.42460 -83.15008 36831 ft 532 kts 86°
2026-05-05 23:09 42.42787 -83.05000 36847 ft 532 kts 86°
2026-05-05 23:09 42.43110 -82.94995 36855 ft 532 kts 86°
2026-05-05 23:10 42.43433 -82.84983 36856 ft 532 kts 86°
2026-05-05 23:10 42.43751 -82.74978 36838 ft 532 kts 86°
2026-05-05 23:11 42.44057 -82.64963 36838 ft 533 kts 86°
2026-05-05 23:11 42.44343 -82.54944 36846 ft 533 kts 86°
2026-05-05 23:12 42.44625 -82.44912 36860 ft 533 kts 86°
2026-05-05 23:12 42.44906 -82.34886 36839 ft 532 kts 87°
2026-05-05 23:13 42.45168 -82.24877 36864 ft 532 kts 87°
2026-05-05 23:13 42.45410 -82.14864 36871 ft 532 kts 87°
2026-05-05 23:14 42.45648 -82.04856 36872 ft 531 kts 87°
2026-05-05 23:14 42.45898 -81.94860 36872 ft 531 kts 87°
2026-05-05 23:15 42.46131 -81.84933 36874 ft 531 kts 87°
2026-05-05 23:15 42.46347 -81.74928 36874 ft 531 kts 87°
2026-05-05 23:16 42.46552 -81.64933 36875 ft 531 kts 87°
2026-05-05 23:16 42.46757 -81.54946 36879 ft 530 kts 87°
2026-05-05 23:17 42.46965 -81.44964 36883 ft 530 kts 87°
2026-05-05 23:17 42.47151 -81.34979 36885 ft 530 kts 88°
2026-05-05 23:18 42.47321 -81.25012 36884 ft 529 kts 88°
2026-05-05 23:18 42.47485 -81.15051 36893 ft 528 kts 87°
2026-05-05 23:19 42.47651 -81.05112 36895 ft 528 kts 87°
2026-05-05 23:19 42.47811 -80.95174 36893 ft 527 kts 88°
2026-05-05 23:20 42.47939 -80.85235 36895 ft 527 kts 88°
2026-05-05 23:20 42.48062 -80.75326 36903 ft 526 kts 88°
2026-05-05 23:21 42.48191 -80.65270 36879 ft 542 kts 88°
2026-05-05 23:21 42.48320 -80.55014 36881 ft 551 kts 88°
2026-05-05 23:22 42.48440 -80.44640 36884 ft 550 kts 88°
2026-05-05 23:22 42.48536 -80.34274 36885 ft 550 kts 88°
2026-05-05 23:23 42.48622 -80.23896 36890 ft 550 kts 88°
2026-05-05 23:23 42.48707 -80.13524 36882 ft 550 kts 88°
2026-05-05 23:24 42.48787 -80.03213 36883 ft 544 kts 88°
2026-05-05 23:24 42.48852 -79.92982 36893 ft 543 kts 88°
2026-05-05 23:25 42.48900 -79.82767 36895 ft 542 kts 88°
2026-05-05 23:25 42.48940 -79.74272 36897 ft 541 kts 88°
2026-05-05 23:26 42.48991 -79.62451 36889 ft 540 kts 88°
2026-05-05 23:26 42.49018 -79.53934 36886 ft 540 kts 88°
2026-05-05 23:27 42.49038 -79.43824 36886 ft 540 kts 89°
2026-05-05 23:27 42.49040 -79.33658 36886 ft 539 kts 89°
2026-05-05 23:28 42.49305 -79.23529 36892 ft 537 kts 82°
2026-05-05 23:28 42.50029 -79.13457 36890 ft 536 kts 82°
2026-05-05 23:29 42.50737 -79.03384 36879 ft 537 kts 82°
2026-05-05 23:29 42.51418 -78.93300 36878 ft 536 kts 83°
2026-05-05 23:30 42.52090 -78.83228 36876 ft 536 kts 83°
2026-05-05 23:30 42.52760 -78.73155 36875 ft 536 kts 83°
2026-05-05 23:31 42.53425 -78.63153 36870 ft 536 kts 83°
2026-05-05 23:31 42.54081 -78.53090 36883 ft 535 kts 83°
2026-05-05 23:32 42.54726 -78.43036 36883 ft 535 kts 83°
2026-05-05 23:32 42.55375 -78.32986 36874 ft 535 kts 83°
2026-05-05 23:33 42.55990 -78.22930 36866 ft 535 kts 83°
2026-05-05 23:33 42.56596 -78.12875 36857 ft 534 kts 83°
2026-05-05 23:34 42.57203 -78.02833 36857 ft 534 kts 83°
2026-05-05 23:34 42.57801 -77.92792 36850 ft 534 kts 83°
2026-05-05 23:35 42.58388 -77.82753 36881 ft 533 kts 84°
2026-05-05 23:35 42.58959 -77.72722 36906 ft 533 kts 84°
2026-05-05 23:36 42.59533 -77.62686 36900 ft 533 kts 84°
2026-05-05 23:36 42.60099 -77.52653 36884 ft 533 kts 84°
2026-05-05 23:37 42.60654 -77.42687 36877 ft 532 kts 84°
2026-05-05 23:37 42.61204 -77.32658 36843 ft 532 kts 84°
2026-05-05 23:38 42.61739 -77.22639 36833 ft 532 kts 84°
2026-05-05 23:38 42.62255 -77.12620 36847 ft 532 kts 84°
2026-05-05 23:39 42.62761 -77.02613 36849 ft 531 kts 84°
2026-05-05 23:39 42.63276 -76.92590 36846 ft 531 kts 84°
2026-05-05 23:40 42.63781 -76.82587 36809 ft 532 kts 84°
2026-05-05 23:40 42.64267 -76.72550 36804 ft 533 kts 84°
2026-05-05 23:41 42.64969 -76.62543 36847 ft 529 kts 72°
2026-05-05 23:41 42.66236 -76.57942 36828 ft 511 kts 55°
2026-05-05 23:41 42.68243 -76.54097 36827 ft 490 kts 38°
2026-05-05 23:42 42.70768 -76.51107 36830 ft 478 kts 29°
2026-05-05 23:42 42.73408 -76.48360 36818 ft 476 kts 28°
2026-05-05 23:42 42.78655 -76.42983 36814 ft 475 kts 28°
2026-05-05 23:43 42.83871 -76.37440 36799 ft 484 kts 38°
2026-05-05 23:43 42.85958 -76.33747 36797 ft 500 kts 55°
2026-05-05 23:43 42.87298 -76.29322 36796 ft 511 kts 72°
2026-05-05 23:44 42.88555 -76.19736 36788 ft 515 kts 78°
2026-05-05 23:44 42.89685 -76.10083 36810 ft 515 kts 78°
2026-05-05 23:45 42.90808 -76.00430 36824 ft 515 kts 78°
2026-05-05 23:45 42.91156 -75.90682 36797 ft 518 kts 94°
2026-05-05 23:46 42.90493 -75.80891 36797 ft 519 kts 95°
2026-05-05 23:46 42.89781 -75.71091 36791 ft 518 kts 95°
2026-05-05 23:47 42.89070 -75.61300 36881 ft 518 kts 95°
2026-05-05 23:47 42.88367 -75.51581 36886 ft 518 kts 95°
2026-05-05 23:48 42.87653 -75.41805 36864 ft 518 kts 95°
2026-05-05 23:48 42.86928 -75.31973 36863 ft 517 kts 95°
2026-05-05 23:49 42.86205 -75.22289 36844 ft 517 kts 95°
2026-05-05 23:49 42.85466 -75.12554 36827 ft 516 kts 95°
2026-05-05 23:50 42.84722 -75.02825 36786 ft 515 kts 95°
2026-05-05 23:50 42.83969 -74.93121 36807 ft 515 kts 95°
2026-05-05 23:51 42.83203 -74.83435 36799 ft 511 kts 96°
2026-05-05 23:51 42.82449 -74.73927 36785 ft 502 kts 95°
2026-05-05 23:52 42.81696 -74.64475 36800 ft 502 kts 96°
2026-05-05 23:52 42.80927 -74.55035 36795 ft 501 kts 96°
2026-05-05 23:53 42.80152 -74.45595 36800 ft 501 kts 96°
2026-05-05 23:53 42.79370 -74.36152 36807 ft 502 kts 96°
2026-05-05 23:54 42.78581 -74.26719 36813 ft 501 kts 96°
2026-05-05 23:54 42.77793 -74.17362 36819 ft 500 kts 96°
2026-05-05 23:55 42.76996 -74.07954 36817 ft 500 kts 96°
2026-05-05 23:55 42.76194 -73.98568 36803 ft 499 kts 96°
2026-05-05 23:56 42.75379 -73.89204 36827 ft 497 kts 96°
2026-05-05 23:56 42.74677 -73.79867 36836 ft 495 kts 89°
2026-05-05 23:57 42.74621 -73.70510 36832 ft 494 kts 89°
2026-05-05 23:57 42.74563 -73.61177 36820 ft 492 kts 90°
2026-05-05 23:58 42.74495 -73.51881 36832 ft 490 kts 90°
2026-05-05 23:58 42.74415 -73.42635 36845 ft 487 kts 90°
2026-05-05 23:59 42.74369 -73.38026 36582 ft 490 kts 90°
2026-05-05 23:59 42.74320 -73.33318 35294 ft 506 kts 90°
2026-05-05 23:59 42.74269 -73.28461 34132 ft 519 kts 89°
2026-05-05 23:59 42.74220 -73.23601 33497 ft 508 kts 89°
2026-05-06 00:00 42.74165 -73.18842 32642 ft 499 kts 89°
2026-05-06 00:00 42.74105 -73.14138 32181 ft 494 kts 89°
2026-05-06 00:00 42.73850 -73.09510 31691 ft 488 kts 98°
2026-05-06 00:00 42.73328 -73.04968 31235 ft 483 kts 99°
2026-05-06 00:01 42.72810 -73.00482 30785 ft 478 kts 99°
2026-05-06 00:01 42.72302 -72.96103 30339 ft 473 kts 99°
2026-05-06 00:01 42.71793 -72.91714 29907 ft 466 kts 98°
2026-05-06 00:01 42.71294 -72.87404 29490 ft 458 kts 98°
2026-05-06 00:02 42.70800 -72.83150 28977 ft 453 kts 99°
2026-05-06 00:02 42.70307 -72.78936 28448 ft 449 kts 99°
2026-05-06 00:02 42.69821 -72.74765 27915 ft 445 kts 99°
2026-05-06 00:02 42.69336 -72.70622 27404 ft 442 kts 99°
2026-05-06 00:03 42.68847 -72.66516 26900 ft 438 kts 100°
2026-05-06 00:03 42.68360 -72.62443 26417 ft 435 kts 100°
2026-05-06 00:03 42.67873 -72.58403 25948 ft 432 kts 100°
2026-05-06 00:03 42.67385 -72.54391 25481 ft 429 kts 101°
2026-05-06 00:04 42.66900 -72.50406 25034 ft 426 kts 101°
2026-05-06 00:04 42.66416 -72.46441 24595 ft 424 kts 101°
2026-05-06 00:04 42.65935 -72.42500 24165 ft 421 kts 101°
2026-05-06 00:04 42.65453 -72.38589 23739 ft 419 kts 101°
2026-05-06 00:05 42.64485 -72.30848 22867 ft 411 kts 101°
2026-05-06 00:05 42.64031 -72.27068 22711 ft 399 kts 101°
2026-05-06 00:05 42.63607 -72.23378 22396 ft 392 kts 101°
2026-05-06 00:06 42.63193 -72.19731 21971 ft 389 kts 101°
2026-05-06 00:06 42.62784 -72.16117 21556 ft 386 kts 101°
2026-05-06 00:06 42.62372 -72.12528 21146 ft 383 kts 101°
2026-05-06 00:06 42.61962 -72.09015 20753 ft 380 kts 101°
2026-05-06 00:07 42.61542 -72.05478 20338 ft 378 kts 101°
2026-05-06 00:07 42.61123 -72.01974 19937 ft 375 kts 102°
2026-05-06 00:07 42.60701 -71.98502 19547 ft 372 kts 102°
2026-05-06 00:07 42.60275 -71.95051 19162 ft 369 kts 102°
2026-05-06 00:08 42.59846 -71.91626 18789 ft 366 kts 102°
2026-05-06 00:08 42.59416 -71.88227 18426 ft 363 kts 103°
2026-05-06 00:08 42.58994 -71.84886 17863 ft 357 kts 103°
2026-05-06 00:08 42.58577 -71.81584 17094 ft 354 kts 103°
2026-05-06 00:09 42.58114 -71.78323 16362 ft 351 kts 105°
2026-05-06 00:09 42.57607 -71.75101 15642 ft 348 kts 105°
2026-05-06 00:09 42.57085 -71.71916 14954 ft 345 kts 105°
2026-05-06 00:09 42.56565 -71.68764 14286 ft 344 kts 105°
2026-05-06 00:10 42.56046 -71.65605 13829 ft 341 kts 105°
2026-05-06 00:10 42.55538 -71.62476 13112 ft 339 kts 105°
2026-05-06 00:10 42.55040 -71.59367 12393 ft 336 kts 105°
2026-05-06 00:10 42.54493 -71.56297 11727 ft 333 kts 108°
2026-05-06 00:11 42.53895 -71.53316 11364 ft 325 kts 109°
2026-05-06 00:11 42.53271 -71.50369 11051 ft 324 kts 110°
2026-05-06 00:11 42.52637 -71.47443 10740 ft 323 kts 110°
2026-05-06 00:11 42.52007 -71.44527 10427 ft 322 kts 110°
2026-05-06 00:12 42.51384 -71.41619 10229 ft 321 kts 110°
2026-05-06 00:12 42.50768 -71.38712 10109 ft 321 kts 110°
2026-05-06 00:12 42.50363 -71.36788 10017 ft 321 kts 110°
2026-05-06 00:12 42.49752 -71.33841 9652 ft 327 kts 109°
2026-05-06 00:13 42.49161 -71.30892 9347 ft 322 kts 109°
2026-05-06 00:13 42.48581 -71.27962 8953 ft 322 kts 109°
2026-05-06 00:13 42.48006 -71.25042 8588 ft 321 kts 109°
2026-05-06 00:13 42.47242 -71.21187 8142 ft 319 kts 110°
2026-05-06 00:14 42.46727 -71.18270 7812 ft 320 kts 101°
2026-05-06 00:14 42.46654 -71.16234 7575 ft 322 kts 89°
2026-05-06 00:14 42.47055 -71.13306 7245 ft 323 kts 71°
2026-05-06 00:14 42.47994 -71.10559 7052 ft 316 kts 62°
2026-05-06 00:15 42.49055 -71.08010 6929 ft 306 kts 51°
2026-05-06 00:15 42.50503 -71.06034 6802 ft 293 kts 31°
2026-05-06 00:15 42.52243 -71.04774 6631 ft 278 kts 13°
2026-05-06 00:15 42.54053 -71.03667 5974 ft 299 kts 30°
2026-05-06 00:16 42.55527 -71.01574 5221 ft 325 kts 58°
2026-05-06 00:16 42.56627 -70.98670 4390 ft 354 kts 65°
2026-05-06 00:16 42.57602 -70.95746 4204 ft 326 kts 73°
2026-05-06 00:16 42.57900 -70.92864 4086 ft 294 kts 101°
2026-05-06 00:17 42.57326 -70.90403 3927 ft 257 kts 134°
2026-05-06 00:17 42.56083 -70.89065 3801 ft 208 kts 175°
2026-05-06 00:17 42.54832 -70.89214 3642 ft 167 kts 220°
2026-05-06 00:17 42.54152 -70.90339 3474 ft 148 kts 236°
2026-05-06 00:18 42.53508 -70.91350 3404 ft 136 kts 224°
2026-05-06 00:18 42.52697 -70.92079 3183 ft 158 kts 212°
2026-05-06 00:18 42.51656 -70.92547 3983 ft 154 kts 202°
2026-05-06 00:18 42.50625 -70.93073 3855 ft 160 kts 225°
2026-05-06 00:19 42.49727 -70.94053 3363 ft 172 kts 214°
2026-05-06 00:19 42.48625 -70.94544 3335 ft 163 kts 201°
2026-05-06 00:19 42.47570 -70.94836 3367 ft 149 kts 201°
2026-05-06 00:19 42.46545 -70.95110 3558 ft 157 kts 200°
2026-05-06 00:20 42.45454 -70.95424 4603 ft 167 kts 202°
2026-05-06 00:20 42.44174 -70.95831 4712 ft 201 kts 201°